Location: Olsztyn
(53.7767°N, 20.4765°E)
Time: 10:50:42
(UTC+01:00)

Vanguard 2 Rocket - Visible Passes

Search period start: 19 January 2022 00:00
Search period end: 29 January 2022 00:00
Orbit: 554 x 3325 km, 32.9° (Epoch: 18 January)

Date Brightness Start Highest point End Pass type
(mag) Time Alt. Az. Time Alt. Az. Time Alt. Az.
19 Jan 10.5 01:41:34 21° SSE 01:43:46 21° SE 01:56:19 10° ESE visible
19 Jan 10.3 03:47:22 22° SSW 03:57:58 34° SSE 04:13:32 10° ESE visible
19 Jan 10.3 05:55:59 10° WSW 06:13:02 36° S 06:27:12 10° SE visible
20 Jan 10.8 00:45:12 15° SE 00:45:12 15° SE 00:52:20 10° ESE visible
20 Jan 10.3 02:50:59 27° S 02:56:44 31° SSE 03:12:15 10° ESE visible
20 Jan 10.3 04:56:46 14° SW 05:11:44 38° S 05:27:08 10° ESE visible
21 Jan 10.4 01:54:32 26° SSE 01:55:46 26° SSE 02:10:16 10° ESE visible
21 Jan 10.2 04:00:19 24° SW 04:10:20 37° S 04:26:32 10° ESE visible
21 Jan 10.4 06:08:42 10° WSW 06:25:26 35° SSW 06:39:41 10° SE visible
22 Jan 10.6 00:58:01 20° SE 00:58:01 20° SE 01:07:20 10° ESE visible
22 Jan 10.1 03:03:48 31° S 03:09:00 35° SSE 03:25:23 10° ESE visible
22 Jan 10.3 05:09:34 15° WSW 05:24:09 37° S 05:39:46 10° SE visible
23 Jan 10.9 00:01:27 11° ESE 00:01:27 11° ESE 00:02:44 10° ESE visible
23 Jan 10.2 02:07:14 30° SSE 02:07:52 30° SSE 02:23:38 10° ESE visible
23 Jan 10.2 04:12:59 25° SW 04:22:43 38° S 04:39:17 10° ESE visible
23 Jan 10.4 06:21:40 10° WSW 06:37:41 32° SSW 06:51:48 10° SSE visible
24 Jan 10.4 01:10:38 24° SE 01:10:38 24° SE 01:21:11 10° ESE visible
24 Jan 10.0 03:16:23 33° SSW 03:21:19 37° S 03:38:15 10° ESE visible
24 Jan 10.3 05:22:09 14° WSW 05:36:30 35° SSW 05:52:05 10° SE visible
25 Jan 10.8 00:14:00 15° ESE 00:14:00 15° ESE 00:17:48 10° ESE visible
25 Jan 10.0 02:19:45 34° SSE 02:20:06 34° SSE 02:36:38 10° ESE visible
25 Jan 10.1 04:25:31 25° SW 04:35:07 37° S 04:51:46 10° SE visible
25 Jan 10.5 06:34:57 10° WSW 06:49:49 27° SSW 07:03:23 10° SSE visible
26 Jan 10.3 01:23:06 27° SE 01:23:06 27° SE 01:34:27 10° ESE visible
26 Jan 9.9 03:28:52 34° SSW 03:33:42 38° S 03:50:51 10° ESE visible
26 Jan 10.4 05:34:38 13° WSW 05:48:46 32° SSW 06:04:01 10° SSE visible
27 Jan 10.6 00:26:27 17° ESE 00:26:27 17° ESE 00:31:36 10° ESE visible
27 Jan 9.9 02:32:13 36° S 02:32:26 36° S 02:49:22 10° ESE visible
27 Jan 10.1 04:37:58 23° SW 04:47:29 35° SSW 05:03:55 10° SE visible
27 Jan 10.6 06:48:42 10° WSW 07:01:50 22° SW 07:14:14 10° S visible
28 Jan 10.2 01:35:33 30° SE 01:35:33 30° SE 01:47:21 10° ESE visible
28 Jan 9.9 03:41:18 33° SSW 03:46:07 37° S 04:03:10 10° SE visible
28 Jan 10.5 05:47:04 11° WSW 06:00:56 27° SSW 06:15:23 10° SSE visible
